Vertical_Velocity
1 2 -1 -3 -2 -3 -0 0 -2 0 -2 0 -3 -2 0 0 1 -0 -2 -1 5 5 -0 0 -1 -1 3 -0 3 2 0 -3 1 -4 -3 -3 1 1 0 2 -4 4 8 -6 6 6 -15 4 1 3 4 -3 -3 -4
1 1 -2 -2 -4 -2 -1 -2 0 -1 -0 -1 -1 -3 -2 -2 0 -1 5 1 1 0 1 4 3 3 2 4 2 2 1 2 1 -1 -3 7 -1 1 3 -4 -2 -2 -19 12 -2 -17 -15 -4 -3 1 2 -1 -6 -2
2 3 -1 -2 -1 -3 -3 -1 -1 0 1 -1 -0 -0 -2 -1 -1 1 1 0 -2 -0 0 -2 2 -1 -2 -1 -3 -3 -2 1 -6 9 1 1 2 -2 -2 -6 8 -8 3 -7 22 -7 -21 26 9 10 -5 -3 3 4
-1 1 2 1 -0 -1 -1 -2 -1 -0 -0 -0 -1 -1 -0 0 -0 0 4 3 3 -3 -5 -3 1 0 3 -0 -0 1 1 2 2 3 3 0 -0 2 -11 5 6 10 2 -16 -3 -8 2 11 -2 5 13 16 8 5
1 0 -2 1 2 1 -0 -1 -1 0 -1 0 -0 1 0 1 2 1 -2 -0 1 2 -1 -7 -0 -2 1 -2 1 3 2 -0 -2 -2 1 -4 -5 6 -1 6 -0 -14 -25 11 -26 10 -2 -2 12 -3 -1 -0 3 4
1 0 -2 1 -1 1 1 -1 1 -0 2 -2 -0 -1 -1 -0 1 2 3 -0 -4 -5 -0 5 -2 -1 -3 -6 -7 -3 -2 2 -1 -1 -4 -6 -12 8 5 -3 -10 -16 5 9 -26 4 6 -2 9 -7 -2 5 6 5
1 -1 -3 2 1 0 4 -1 -0 -4 3 1 1 -1 0 0 -1 1 1 2 1 2 -6 -7 -9 -3 -4 -2 -2 -0 2 0 6 5 -3 3 7 13 -5 -21 6 19 3 7 3 5 -7 -0 -2 2 5 1 9 0
-0 -6 2 2 1 4 3 -1 -0 -4 2 1 3 2 -2 -0 2 -1 3 2 2 1 1 -3 -10 -9 -6 -2 4 -1 -1 3 -1 -1 -2 1 15 7 -28 -0 -1 2 5 -0 4 1 -3 1 -2 1 7 13 5 4
-6 -3 1 3 3 6 3 -0 -0 -3 2 5 -5 4 2 -1 -3 1 0 2 4 1 -2 -3 -2 -0 2 -2 -4 -6 -3 -10 -4 -14 -9 1 -3 -24 -26 -9 4 4 1 1 1 -1 2 5 4 16 11 8 2 -5
0 0 1 5 3 3 4 1 -1 -1 2 2 -0 -2 0 1 3 3 -0 0 1 -5 -2 -14 3 3 5 5 5 0 2 -1 -1 -6 5 1 -11 -12 4 -1 -2 -2 -4 -1 -6 -6 2 21 4 1 2 -2 -3 -3
2 2 1 2 4 -0 7 4 -1 -2 -1 1 3 4 -1 -0 1 3 1 -1 -1 -2 -0 -2 -2 5 -3 -1 8 4 5 1 1 1 0 -1 -15 4 1 0 3 3 3 3 3 -5 -3 -2 -1 -2 -2 -2 -1 -1
4 8 6 -0 3 0 1 9 1 -6 1 2 -1 2 3 2 1 4 -2 -3 -1 -0 -2 0 4 3 0 1 5 3 0 2 1 3 -2 -12 6 -1 2 -1 -5 -4 1 3 -1 -1 1 -0 1 -2 -3 -3 -1 0
5 5 7 4 3 5 8 4 1 2 -4 -4 1 1 2 -1 1 -6 -3 -3 -3 2 1 4 2 2 2 5 4 -2 -1 2 3 -2 -14 -23 1 -4 -4 -4 -4 -4 -4 -4 -1 -0 -1 1 -1 0 -0 1 2 1
5 3 6 8 1 5 2 6 6 1 2 0 3 -1 -6 -2 -3 -4 2 -2 1 -0 2 3 5 3 2 2 5 -3 6 -2 0 -6 -24 3 -3 -3 -7 -3 -2 -3 -7 -5 -2 -1 0 -0 1 0 -1 -1 -2 -2
1 7 2 10 7 4 6 1 5 6 4 3 -5 -11 -1 -3 -3 -3 -2 -1 -0 1 4 3 1 3 3 4 -4 4 -1 -1 -4 -16 4 -1 -4 -4 -4 -6 -5 -4 -5 -4 -3 -1 -1 -1 0 -1 -3 -1 -3 -2
6 1 10 2 4 2 3 6 3 3 -1 1 -6 -1 -2 -4 0 -0 4 4 3 5 1 1 4 3 -2 2 1 -0 1 -16 -4 -1 0 -1 -2 1 1 -8 -5 -1 -1 -1 -1 -1 -1 0 -1 -1 2 -2 -4 -4
1 10 5 3 4 3 1 7 8 -0 -1 -12 -9 -8 -6 -5 2 9 8 9 4 4 2 4 -0 -11 1 4 -4 -11 -33 5 6 2 1 -3 -4 3 1 -8 -1 1 0 -1 -2 -1 1 -1 -2 -1 -0 2 -2 1
-5 8 1 4 3 9 3 7 7 -4 -18 -9 -14 -6 -1 4 6 2 6 8 5 6 4 -1 7 2 -2 -9 -24 -4 8 5 0 -0 -1 -2 -3 3 -0 -7 1 1 -0 -1 -2 0 1 -3 -2 -1 -1 1 1 1
4 8 9 5 4 7 0 23 6 -6 -6 -9 -11 -2 2 -5 1 5 8 7 6 5 8 -1 11 -4 -25 -10 17 10 -1 2 4 2 -3 -1 -1 3 -0 -5 2 2 -2 -3 1 0 -2 -1 0 -1 -0 -1 -1 3
5 5 8 4 10 8 6 -3 -0 -2 -20 -14 -6 0 8 -1 -0 4 8 5 5 5 9 -7 -18 -8 8 10 -5 2 -2 3 3 1 -4 -1 -0 2 -2 -1 3 -1 -1 1 1 -0 -0 2 1 -0 -0 -1 -5 1
-1 6 10 2 -3 -0 16 6 1 -7 -7 -9 -6 7 -1 -9 -3 2 1 10 5 -9 -16 -7 -4 15 12 -2 9 0 5 4 3 -1 -3 1 5 0 -1 2 1 -1 -0 -0 2 1 -0 0 0 0 0 3 0 -0
8 14 6 8 4 8 3 -10 -16 -11 5 -6 -2 -3 -8 -8 3 -2 4 4 -18 -9 -4 6 9 13 0 3 4 3 7 2 -4 -1 4 2 -2 -1 2 1 -0 -0 -0 -0 2 3 3 -1 -1 -0 -0 1 1 -0
10 3 6 9 11 8 -12 -2 0 8 3 -19 -0 -3 -8 -6 3 4 -5 -14 -12 2 7 4 4 4 3 4 4 5 2 -3 2 5 2 -1 -2 2 1 -1 -1 -1 1 1 1 -0 0 -1 -0 -1 0 0 -3 -1
10 5 8 7 -5 -1 -4 3 0 -1 -5 -5 -5 2 -10 -1 0 0 -17 -11 -2 4 8 2 -2 -3 -1 -1 3 3 1 3 6 2 -1 -2 2 0 -1 -1 -0 0 0 -0 -1 -1 -2 0 -0 0 -1 -2 1 -1
23 -4 -0 9 9 -7 -10 -11 -3 -4 -9 -2 4 -2 -2 4 0 -9 -15 -8 0 1 -2 0 2 2 1 3 2 1 3 3 0 -1 -1 -0 -0 0 -0 -2 -2 -1 -0 -1 -1 -0 0 -1 -1 -1 1 -1 -1 0
-0 -1 4 -5 -7 -0 -5 -0 -1 -2 2 6 -2 -4 2 7 5 -13 -11 -5 -3 2 2 2 2 2 2 2 2 2 0 -0 -2 -2 -1 0 0 -0 -2 -2 -1 -1 -1 -1 -1 0 -0 -1 -1 -1 2 4 3 -2
5 -8 -9 -7 -5 -1 -1 -2 4 2 -2 2 -2 6 8 1 -9 -8 0 1 4 1 2 2 2 2 0 0 1 0 -2 -3 -1 0 0 -0 -1 -1 0 -0 -1 -2 -1 -2 -2 -2 -1 1 0 -1 -2 2 1 -2
-6 -6 -5 1 1 6 4 3 2 1 8 -0 4 -0 -1 -2 -8 -3 -1 1 4 2 2 1 1 -0 1 1 -1 -2 -2 -0 -0 -0 -1 -1 -1 -0 -1 -1 -0 -0 -0 -2 0 0 -2 -2 -3 -2 -2 -2 -2 1
-4 -5 9 2 6 12 6 2 -0 -3 -1 6 1 3 2 -2 2 3 1 3 2 0 1 1 1 1 -0 -1 -1 -1 -1 -1 0 0 0 -1 -1 -1 -1 -0 -0 -1 -2 0 -2 -4 -4 -4 -4 -5 -3 -5 -5 -4
-1 1 -4 -0 2 0 -5 -0 -0 3 8 7 5 3 5 7 7 6 3 -0 0 2 3 1 1 1 -0 -1 -1 -2 -1 -0 -0 -1 -1 -1 -1 -1 0 2 -0 -3 -2 -1 -2 2 1 -2 1 2 3 3 0 -0
3 3 6 3 0 -0 4 6 7 6 3 4 6 7 6 3 2 1 1 1 2 1 1 0 -0 -1 -0 -1 -1 -1 -1 -1 -1 -0 0 -0 -0 -1 1 1 -2 -0 -1 -1 -1 -2 -1 0 -2 0 1 -0 1 -1
5 4 7 7 4 4 6 5 2 1 1 2 2 3 1 1 1 2 2 2 2 1 -0 -1 -0 0 -1 -1 -1 -1 -1 -0 0 0 0 -0 -1 -1 2 -1 -0 -0 -0 -1 -2 -2 -2 -2 -1 -1 -2 -1 -1 -1
3 5 5 3 2 3 4 5 3 3 2 2 1 2 2 3 2 1 2 2 1 0 -0 -0 -0 -0 -1 -1 -1 -1 -0 1 1 0 -1 -1 -1 -2 1 -1 -0 -1 -2 -3 -2 -1 1 1 1 -1 -1 -0 -1 -1
Height
3047 3049 3050 3050 3049 3049 3049 3049 3050 3050 3050 3052 3053 3055 3057 3059 3059 3060 3061 3060 3061 3063 3066 3068 3071 3073 3074 3075 3075 3076 3078 3077 3077 3078 3078 3079 3079 3077 3076 3075 3076 3077 3076 3071 3070 3068 3057 3053 3051 3051 3047 3041 3039 3038
3039 3041 3042 3043 3044 3043 3043 3044 3044 3045 3045 3046 3048 3049 3051 3053 3055 3056 3058 3058 3057 3059 3061 3063 3065 3067 3069 3069 3070 3069 3073 3073 3073 3073 3074 3072 3071 3068 3068 3065 3067 3065 3065 3065 3060 3050 3048 3046 3041 3040 3035 3032 3029 3027
3031 3033 3034 3035 3037 3038 3038 3038 3039 3039 3039 3041 3042 3043 3045 3046 3048 3050 3051 3053 3053 3052 3055 3057 3059 3060 3062 3063 3063 3065 3066 3067 3067 3065 3066 3064 3062 3060 3058 3054 3054 3051 3056 3051 3047 3039 3036 3034 3031 3028 3022 3020 3018 3015
3024 3025 3026 3027 3029 3030 3031 3032 3032 3033 3034 3034 3037 3038 3039 3041 3042 3044 3045 3047 3049 3050 3050 3055 3055 3055 3056 3056 3058 3058 3059 3059 3059 3058 3056 3053 3053 3051 3044 3044 3043 3048 3044 3041 3027 3029 3026 3025 3022 3019 3015 3009 3006 3003
3016 3017 3019 3019 3020 3022 3023 3025 3026 3027 3028 3029 3031 3033 3033 3035 3036 3038 3040 3042 3044 3048 3043 3044 3047 3050 3051 3051 3052 3052 3052 3052 3051 3048 3046 3044 3042 3043 3035 3030 3023 3031 3030 3028 3012 3022 3018 3011 3012 3007 3004 3000 2997 2994
3006 3009 3011 3012 3013 3014 3016 3018 3019 3020 3022 3024 3026 3028 3029 3030 3031 3033 3035 3037 3037 3038 3039 3035 3035 3039 3043 3043 3043 3045 3044 3044 3041 3039 3036 3033 3033 3036 3024 3014 3013 3013 3010 3011 3004 3005 3001 2998 2997 2994 2992 2991 2987 2984
2995 3000 3003 3004 3005 3007 3009 3011 3012 3015 3016 3019 3021 3023 3025 3026 3028 3029 3031 3032 3032 3034 3034 3034 3030 3028 3030 3033 3034 3035 3035 3033 3032 3029 3023 3023 3022 3023 3012 3001 3004 3002 2998 2994 2992 2991 2986 2986 2983 2981 2981 2979 2977 2975
2984 2991 2995 2996 2998 3001 3004 3005 3007 3009 3012 3013 3016 3018 3020 3021 3023 3025 3025 3026 3026 3029 3030 3029 3026 3026 3027 3027 3027 3026 3026 3025 3021 3018 3015 3012 3012 3009 2999 2995 2993 2990 2986 2983 2981 2978 2975 2973 2971 2969 2968 2967 2965 2964
2977 2983 2987 2989 2992 2995 2998 3000 3002 3005 3007 3009 3011 3012 3013 3015 3017 3019 3019 3019 3020 3025 3022 3017 3017 3019 3015 3018 3019 3019 3017 3014 3011 3006 3006 3003 2997 2992 2989 2985 2983 2981 2977 2972 2968 2966 2964 2963 2962 2961 2959 2957 2956 2955
2971 2976 2980 2984 2986 2989 2993 2995 2997 3000 3003 3005 3007 3009 3008 3009 3010 3011 3011 3011 3012 3012 3010 3006 3009 3010 3011 3010 3011 3012 3008 3006 2999 2995 2993 2985 2975 2977 2975 2974 2972 2971 2968 2964 2961 2959 2957 2955 2954 2953 2952 2951 2951 2950
2963 2968 2973 2977 2981 2983 2986 2990 2993 2995 2998 2999 3001 3002 3002 3003 3004 3004 3003 3004 3004 3002 2998 2998 2999 3001 3003 3006 3006 3006 3001 2998 2991 2987 2986 2974 2967 2970 2968 2967 2965 2962 2959 2956 2954 2952 2951 2951 2949 2947 2947 2946 2945 2943
2955 2959 2965 2970 2974 2977 2982 2983 2986 2990 2992 2994 2996 2996 2997 2997 2996 2997 2994 2996 2994 2995 2993 2994 2996 2996 2996 2998 2999 2997 2995 2991 2984 2979 2978 2967 2967 2963 2961 2958 2956 2955 2952 2949 2946 2945 2944 2944 2943 2943 2941 2940 2938 2935
2948 2952 2957 2962 2966 2970 2974 2977 2980 2982 2987 2989 2990 2991 2991 2990 2987 2986 2987 2987 2988 2988 2989 2990 2991 2992 2991 2993 2991 2990 2986 2981 2977 2973 2967 2961 2959 2957 2954 2950 2948 2946 2944 2943 2941 2941 2940 2939 2938 2937 2935 2933 2931 2928
2942 2946 2950 2955 2959 2963 2965 2970 2973 2975 2979 2980 2982 2981 2983 2979 2976 2978 2983 2984 2985 2984 2984 2984 2985 2985 2984 2986 2984 2980 2976 2973 2968 2962 2956 2954 2952 2950 2949 2947 2943 2939 2938 2937 2937 2936 2935 2934 2933 2931 2929 2926 2923 2919
2936 2940 2944 2948 2952 2955 2958 2962 2965 2967 2970 2972 2974 2971 2965 2970 2972 2975 2977 2978 2979 2979 2978 2978 2978 2978 2976 2976 2974 2970 2967 2962 2955 2948 2948 2946 2944 2942 2941 2939 2938 2935 2933 2932 2931 2931 2930 2928 2926 2924 2920 2917 2913 2909
2928 2932 2937 2940 2944 2947 2951 2954 2956 2959 2960 2961 2959 2957 2957 2965 2967 2968 2970 2971 2972 2970 2969 2971 2970 2967 2966 2963 2958 2955 2954 2949 2946 2943 2941 2939 2939 2936 2932 2931 2932 2929 2927 2926 2925 2923 2922 2920 2917 2915 2912 2908 2904 2899
2919 2925 2928 2932 2936 2940 2944 2947 2949 2949 2949 2946 2943 2950 2955 2958 2959 2960 2961 2963 2963 2961 2962 2962 2959 2960 2954 2948 2944 2942 2939 2940 2939 2937 2934 2932 2932 2929 2925 2926 2926 2923 2920 2919 2917 2916 2914 2911 2908 2905 2902 2898 2893 2889
2912 2917 2920 2924 2929 2932 2934 2937 2939 2938 2935 2935 2938 2944 2945 2946 2947 2948 2949 2951 2952 2951 2951 2950 2948 2942 2938 2935 2932 2932 2932 2932 2928 2926 2926 2924 2924 2923 2919 2920 2919 2916 2913 2910 2908 2907 2904 2902 2899 2895 2891 2886 2882 2878
2904 2908 2912 2916 2921 2924 2927 2929 2929 2928 2926 2927 2930 2932 2932 2934 2936 2936 2937 2938 2938 2940 2939 2934 2931 2924 2924 2924 2923 2923 2922 2922 2920 2917 2916 2916 2917 2916 2912 2912 2910 2907 2904 2902 2899 2897 2895 2892 2889 2884 2880 2875 2871 2866
2895 2900 2904 2908 2913 2916 2919 2919 2919 2918 2918 2920 2921 2921 2922 2922 2923 2924 2925 2923 2924 2926 2923 2917 2913 2915 2916 2916 2914 2912 2913 2912 2911 2909 2909 2910 2909 2906 2904 2904 2901 2898 2895 2893 2890 2887 2884 2881 2877 2872 2868 2864 2859 2855
2887 2891 2895 2900 2903 2906 2909 2907 2908 2909 2910 2910 2911 2910 2909 2910 2911 2912 2912 2912 2911 2909 2904 2902 2903 2907 2905 2904 2903 2902 2904 2902 2901 2900 2900 2900 2899 2897 2896 2894 2891 2889 2886 2884 2881 2878 2874 2870 2867 2863 2859 2855 2849 2844
2879 2883 2887 2891 2894 2895 2895 2896 2899 2901 2902 2899 2900 2900 2900 2900 2899 2899 2899 2898 2895 2894 2892 2892 2894 2894 2893 2893 2893 2894 2893 2893 2893 2892 2891 2891 2890 2889 2887 2884 2882 2879 2877 2874 2871 2868 2865 2861 2857 2853 2849 2844 2838 2833
2872 2877 2880 2883 2885 2885 2886 2887 2888 2890 2890 2889 2891 2890 2888 2888 2886 2886 2885 2883 2881 2882 2883 2883 2883 2882 2883 2884 2884 2884 2884 2884 2885 2884 2882 2882 2881 2879 2877 2875 2873 2870 2868 2865 2862 2859 2856 2852 2848 2843 2838 2832 2826 2820
2866 2869 2872 2873 2873 2873 2873 2874 2876 2879 2878 2878 2879 2878 2877 2877 2877 2875 2871 2869 2870 2873 2873 2872 2872 2873 2873 2874 2875 2876 2876 2877 2876 2875 2874 2873 2871 2870 2868 2866 2864 2862 2860 2857 2854 2851 2847 2842 2838 2833 2827 2821 2815 2808
2860 2862 2862 2860 2860 2863 2864 2866 2866 2867 2867 2869 2870 2869 2869 2869 2867 2865 2861 2859 2863 2865 2864 2864 2865 2865 2866 2867 2868 2868 2869 2868 2867 2866 2866 2865 2863 2861 2860 2858 2857 2855 2852 2849 2846 2842 2837 2833 2828 2823 2817 2811 2804 2799
2849 2850 2849 2848 2850 2853 2852 2854 2855 2857 2858 2859 2860 2860 2859 2860 2859 2856 2850 2852 2854 2856 2856 2857 2857 2858 2859 2860 2861 2861 2860 2860 2860 2860 2859 2857 2856 2855 2854 2852 2849 2847 2843 2840 2836 2832 2828 2823 2818 2813 2808 2803 2797 2789
2836 2835 2837 2838 2840 2842 2844 2845 2846 2847 2848 2849 2850 2851 2851 2851 2849 2846 2844 2846 2847 2848 2849 2850 2851 2852 2853 2853 2854 2854 2854 2854 2854 2853 2852 2851 2850 2849 2847 2845 2842 2839 2834 2831 2826 2822 2818 2814 2809 2804 2799 2795 2789 2782
2826 2827 2830 2833 2832 2834 2834 2835 2837 2838 2839 2839 2840 2839 2841 2840 2838 2838 2838 2838 2839 2841 2843 2844 2845 2846 2847 2848 2848 2849 2848 2848 2847 2847 2846 2845 2844 2842 2839 2836 2833 2830 2827 2823 2818 2814 2809 2804 2799 2795 2790 2785 2781 2776
2816 2820 2822 2824 2827 2828 2827 2829 2829 2829 2829 2829 2829 2829 2829 2828 2830 2830 2831 2832 2834 2836 2838 2839 2840 2841 2842 2842 2843 2842 2842 2842 2841 2841 2840 2838 2836 2834 2831 2828 2825 2822 2818 2815 2810 2805 2801 2797 2793 2788 2783 2778 2773 2769
2810 2814 2817 2817 2817 2818 2819 2819 2819 2820 2820 2822 2822 2822 2822 2822 2823 2824 2826 2827 2830 2832 2833 2834 2835 2836 2836 2837 2837 2836 2836 2835 2835 2834 2832 2830 2828 2825 2823 2821 2818 2814 2810 2806 2803 2800 2796 2792 2788 2784 2779 2774 2769 2764
2805 2806 2808 2809 2809 2810 2811 2812 2812 2813 2814 2815 2815 2817 2818 2819 2820 2821 2822 2824 2826 2827 2828 2829 2830 2831 2831 2831 2830 2830 2830 2829 2828 2826 2824 2822 2820 2818 2817 2814 2810 2807 2803 2800 2796 2793 2789 2786 2781 2777 2773 2769 2764 2758
2798 2799 2801 2801 2802 2803 2805 2806 2807 2809 2809 2811 2812 2814 2815 2816 2817 2819 2819 2821 2822 2822 2823 2824 2824 2824 2825 2824 2824 2824 2823 2822 2821 2819 2818 2816 2814 2812 2811 2807 2804 2801 2798 2794 2790 2786 2782 2778 2775 2771 2767 2763 2758 2753
2794 2795 2796 2797 2798 2799 2801 2803 2804 2805 2806 2807 2808 2810 2810 2812 2813 2815 2815 2816 2817 2817 2818 2818 2819 2819 2819 2819 2819 2818 2817 2816 2815 2813 2812 2810 2808 2806 2804 2802 2799 2796 2792 2789 2785 2781 2777 2774 2770 2767 2763 2759 2754 2749